This is the latest recevied weather packets stored in our database for station/object WP4NYS-13. If no packets are shown the sender has not sent any weather packets the latest 10 day(s).
| Time | Temp. | Humidity | Pressure | Rain* | Wind** | Luminosity | Snow |
|---|---|---|---|---|---|---|---|
| 1777921052 | 28.89° C | 29% | 1016.9 hPa | 0 mm | - | - | - |
| 1777920749 | 29.44° C | 29% | 1017 hPa | 0 mm | - | - | - |
| 1777920445 | 28.89° C | 28% | 1016.6 hPa | 0 mm | - | - | - |
| 1777920141 | 29.44° C | 28% | 1017 hPa | 0 mm | - | - | - |
| 1777919837 | 29.44° C | 28% | 1017 hPa | 0 mm | - | - | - |
| 1777919534 | 28.89° C | 29% | 1016.9 hPa | 0 mm | - | - | - |
| 1777919232 | 28.89° C | 29% | 1017.3 hPa | 0 mm | - | - | - |
| 1777918929 | 29.44° C | 29% | 1017.2 hPa | 0 mm | - | - | - |
| 1777918627 | 28.89° C | 28% | 1017.3 hPa | 0 mm | - | - | - |
| 1777918324 | 28.89° C | 31% | 1017.3 hPa | 0 mm | - | - | - |
| 1777918023 | 29.44° C | 31% | 1017.2 hPa | 0 mm | - | - | - |
| 1777917721 | 29.44° C | 31% | 1017.3 hPa | 0 mm | - | - | - |
| 1777917418 | 28.89° C | 32% | 1017.3 hPa | 0 mm | - | - | - |
| 1777917114 | 28.89° C | 31% | 1017.6 hPa | 0 mm | - | - | - |
| 1777916813 | 28.89° C | 31% | 1017.8 hPa | 0 mm | - | - | - |
| 1777916509 | 28.89° C | 30% | 1017.9 hPa | 0 mm | - | - | - |
| 1777916206 | 28.89° C | 31% | 1017.9 hPa | 0 mm | - | - | - |
| 1777915904 | 28.89° C | 31% | 1017.8 hPa | 0 mm | - | - | - |
| 1777915600 | 28.33° C | 32% | 1017.8 hPa | 0 mm | - | - | - |
| 1777915297 | 28.89° C | 31% | 1017.8 hPa | 0 mm | - | - | - |
| 1777914993 | 28.89° C | 31% | 1017.8 hPa | 0 mm | - | - | - |
| 1777914690 | 28.33° C | 32% | 1018 hPa | 0 mm | - | - | - |
| 1777914387 | 27.78° C | 33% | 1018.1 hPa | 0 mm | - | - | - |
| 1777914084 | 27.78° C | 33% | 1018.3 hPa | 0 mm | - | - | - |
| 1777913781 | 28.33° C | 32% | 1018.5 hPa | 0 mm | - | - | - |
* Rain latest hour (hover to see other rain measurements)
** Current wind speed in m/s (hover to see current wind gust speed)